Location: Austin
(30.3000°N, 97.7500°W)
Time: 03:46:06
(UTC-05:00)

Tiangong - Pass Details

Date: 18 March 2023
Orbit: 373 x 379 km, 41.5° (Epoch: 01 April)

Event Time Altitude Azimuth Distance (km) Brightness Sun altitude
Rises 20:19:30 0° 311° (NW) 2,234 2.7 -9.1°
Reaches altitude 10° 20:22:03 10° 333° (NNW) 1,379 1.1 -9.6°
Maximum altitude 20:24:12 17° 17° (NNE) 1,037 -0.1 -10.1°
Enters shadow 20:26:06 11° 57° (ENE) 1,309 0.1 -10.5°
